Content
SEND FEEDBACK

Daily
Averages
Monthly
Summary
United States of America

NEW YORK - CENTRAL PARK, NEW YORK


Home > North America > United States > New York
Elevation: 14 feet     Latitude: 40 47N     Longitude: 073 58W

WEATHER
 
SELECT A DAY
Number of Records: 148,358;   Date Range: 11/1/95 - 9/20/14
 
SHARE

PRINT THIS DATA

[ ← Previous Day ]
WEATHER ALMANAC - FEBRUARY 21, 2013
[ Next Day → ]
[ °C ]   °F
Weather ElementAverageHighLow
Temperature27.9 °F34 °F (1:51 pm)24.1 °F (2:51 am)
Dewpoint10.3 °F12 °F (6:51 pm)9 °F (1:51 am)
Humidity48.2 %58 % (10:51 pm)38 % (1:51 pm)
Barometer30.07 in30.27 in (11:51 pm)29.97 in (3:51 am)
Wind Speed10 mph15 mph (3:51 pm)
Wind Gust29.9 mph (8:51 am)
Weather ElementAverage
Visibility10 mi
Wind DirectionSSW (197 °)

Weather ElementTotal
Precipitation---
Heating Degree Days36 (Base 65)
Averaged from 23 records on February 21, 2013
WEATHER CONDITIONS BREAKOUT
WIND DIRECTION BREAKOUT
WEATHER BY HOUR - FEBRUARY 21, 2013
[ °C ]   °F
Local TimeTemperatureDewpointHumidityBarometerVisibilityWind DirectionWind SpeedGust SpeedPrecipitationEventsConditions
1:51 AM25.0 °F9.0 °F51 %29.98 in10.0 miWNW (290°)8.1 mph18.4 mphClear
2:51 AM24.1 °F9.0 °F53 %29.98 in10.0 miNorthClear
3:51 AM25.0 °F9.0 °F51 %29.97 in10.0 miWNW (290°)8.1 mphOvercast
4:51 AM25.0 °F10.0 °F53 %29.98 in10.0 miVariable5.8 mph23.0 mphOvercast
5:51 AM25.0 °F10.0 °F53 %30.00 in10.0 miVariable6.9 mph20.7 mphOvercast
6:51 AM25.0 °F9.0 °F51 %30.01 in10.0 miVariable5.8 mph19.6 mphOvercast
7:51 AM25.0 °F9.0 °F51 %30.01 in10.0 miWNW (290°)12.7 mph28.8 mphMostly Cloudy
8:51 AM27.0 °F9.0 °F47 %30.01 in10.0 miWNW (300°)12.7 mph29.9 mphScattered Clouds
9:51 AM28.0 °F9.0 °F45 %30.01 in10.0 miWNW (290°)13.8 mph27.6 mphPartly Cloudy
10:51 AM30.0 °F9.0 °F41 %30.00 in10.0 miWNW (290°)13.8 mph28.8 mphClear
11:51 AM30.9 °F10.0 °F42 %30.01 in10.0 miNW (310°)9.2 mph18.4 mphMostly Cloudy
12:51 PM32.0 °F10.9 °F42 %30.00 in10.0 miVariable6.9 mph17.3 mphMostly Cloudy
1:51 PM34.0 °F10.9 °F38 %30.01 in10.0 miNW (310°)9.2 mph23.0 mphMostly Cloudy
2:51 PM33.1 °F10.9 °F40 %30.01 in10.0 miWNW (290°)9.2 mph19.6 mphClear
3:51 PM33.1 °F10.9 °F40 %30.03 in10.0 miNW (320°)15.0 mph26.5 mphClear
4:51 PM32.0 °F10.9 °F42 %30.08 in10.0 miNW (310°)15.0 mph27.6 mphClear
5:51 PM30.0 °F10.9 °F45 %30.11 in10.0 miNW (310°)12.7 mph25.3 mphClear
6:51 PM28.9 °F12.0 °F49 %30.12 in10.0 miNW (310°)11.5 mph25.3 mphClear
7:51 PM27.0 °F10.9 °F51 %30.21 in10.0 miNW (310°)9.2 mph24.2 mphClear
8:51 PM26.1 °F10.9 °F53 %30.24 in10.0 miNW (310°)11.5 mph23.0 mphClear
9:51 PM25.0 °F10.9 °F55 %30.25 in10.0 miVariable6.9 mph21.9 mphClear
10:51 PM25.0 °F12.0 °F58 %30.26 in10.0 miVariable5.8 mph19.6 mphClear
11:51 PM25.0 °F12.0 °F58 %30.27 in10.0 miNorthClear
Hourly data recorded from KNYC, located miles away from New York - Central Park, New York







STORIES FROM OUR PARTNERS